Date String (YYYY-MM-DD hh:mm:ss) UTC,Instrument flags,absolute air pressure of the measurement (hPa),sample flow rate (lpm),inlet stack bypass flow (lpm),air temperature of the measurement (°C),ambient temperature measured by the external sensor (°C),aerosol sample conditioner tube jacket temperature (°C),OPC LED temperature (°C),internal box temperature (°C),relative humidity of the measurement (%),span deviation,mass concentration of particles derived from Lorenz-Mie calculation of OPC scattering (μg/m³),mass concentration of particles derived from Lorenz-Mie calculation of OPC scattering (μg/m³),mass concentration of particles derived from Lorenz-Mie calculation of OPC scattering (μg/m³)
DateTimeUTC,F1_M11,P_M11,Q1_M11,Q2_M11,T1_M11,T2_M11,T3_M11,T4_M11,T5_M11,U1_M11,ZSPAN_M11,X2_M11,X0_M11,X1_M11
2024-02-08 23:00:00,SystemResetWarning,0818.3,4.99,000.00,021.4,020.6,000.0,029.6,023.1,10.7,0000.0,0000.34,0000.61,0000.25
2024-02-08 23:01:00,SystemResetWarning,0818.3,5.00,000.00,021.4,020.6,000.0,029.6,023.1,11.1,0000.0,0000.32,0000.58,0000.24
2024-02-08 23:02:00,SystemResetWarning,0818.3,5.01,000.00,021.4,020.6,000.0,029.6,023.1,11.1,0000.0,0000.31,0000.53,0000.24
2024-02-08 23:03:00,SystemResetWarning,0818.3,5.01,000.00,021.4,020.6,000.0,029.6,023.1,11.1,0000.0,0000.31,0000.54,0000.25
2024-02-08 23:04:00,SystemResetWarning,0818.4,5.01,000.00,021.4,020.6,000.0,029.6,023.1,10.9,0000.0,0000.32,0000.56,0000.25
2024-02-08 23:05:00,SystemResetWarning,0818.4,4.99,000.00,021.4,020.6,000.0,029.6,023.1,11.3,0000.0,0000.30,0000.53,0000.24
2024-02-08 23:06:00,SystemResetWarning,0818.3,4.99,000.00,021.4,020.6,000.0,029.6,023.1,11.1,0000.0,0000.30,0000.53,0000.24
2024-02-08 23:07:00,SystemResetWarning,0818.4,5.00,000.00,021.4,020.6,000.0,029.6,023.1,10.8,0000.0,0000.27,0000.47,0000.23
2024-02-08 23:08:00,SystemResetWarning,0818.4,5.01,000.00,021.3,020.6,000.0,029.6,023.1,11.1,0000.0,0000.27,0000.38,0000.23
2024-02-08 23:09:00,SystemResetWarning,0818.4,5.01,000.00,021.3,020.6,000.0,029.6,023.1,11.1,0000.0,0000.26,0000.37,0000.23
2024-02-08 23:10:00,SystemResetWarning,0818.4,4.99,000.00,021.3,020.6,000.0,029.6,023.0,10.9,0000.0,0000.27,0000.39,0000.23
2024-02-08 23:11:00,SystemResetWarning,0818.4,4.99,000.00,021.3,020.6,000.0,029.6,023.0,11.2,0000.0,0000.28,0000.42,0000.23
2024-02-08 23:12:00,SystemResetWarning,0818.4,5.00,000.00,021.3,020.6,000.0,029.6,023.0,11.5,0000.0,0000.28,0000.41,0000.23
2024-02-08 23:13:00,SystemResetWarning,0818.4,5.00,000.00,021.3,020.6,000.0,029.6,023.0,11.5,0000.0,0000.27,0000.41,0000.23
2024-02-08 23:14:00,SystemResetWarning,0818.4,5.00,000.00,021.3,020.6,000.0,029.6,023.0,11.5,0000.0,0000.26,0000.39,0000.22
2024-02-08 23:15:00,SystemResetWarning,0818.4,5.00,000.00,021.3,020.6,000.0,029.6,023.0,11.6,0000.0,0000.24,0000.34,0000.22
2024-02-08 23:16:00,SystemResetWarning,0818.4,4.99,000.00,021.3,020.6,000.0,029.6,023.0,11.8,0000.0,0000.25,0000.33,0000.22
2024-02-08 23:17:00,SystemResetWarning,0818.4,5.01,000.00,021.3,020.6,000.0,029.6,023.1,12.0,0000.0,0000.24,0000.32,0000.22
2024-02-08 23:18:00,SystemResetWarning,0818.4,5.01,000.00,021.3,020.6,000.0,029.6,023.0,11.9,0000.0,0000.25,0000.33,0000.23
2024-02-08 23:19:00,SystemResetWarning,0818.4,5.00,000.00,021.3,020.6,000.0,029.6,023.0,12.0,0000.0,0000.28,0000.39,0000.23
2024-02-08 23:20:00,SystemResetWarning,0818.5,4.99,000.00,021.3,020.5,000.0,029.6,023.0,11.7,0000.0,0000.29,0000.49,0000.23
2024-02-08 23:21:00,SystemResetWarning,0818.4,4.99,000.00,021.3,020.6,000.0,029.6,023.1,11.7,0000.0,0000.29,0000.63,0000.23
2024-02-08 23:22:00,SystemResetWarning,0818.5,5.01,000.00,021.3,020.6,000.0,029.6,023.1,11.8,0000.0,0000.28,0000.60,0000.23
2024-02-08 23:23:00,SystemResetWarning,0818.4,5.01,000.00,021.3,020.5,000.0,029.6,023.1,11.5,0000.0,0000.29,0000.62,0000.24
2024-02-08 23:24:00,SystemResetWarning,0818.5,5.00,000.00,021.3,020.5,000.0,029.6,023.1,11.6,0000.0,0000.31,0000.67,0000.24
2024-02-08 23:25:00,SystemResetWarning,0818.5,5.01,000.00,021.3,020.5,000.0,029.6,023.0,11.6,0000.0,0000.34,0000.76,0000.25
2024-02-08 23:26:00,SystemResetWarning,0818.5,4.99,000.00,021.3,020.5,000.0,029.6,023.0,12.1,0000.0,0000.36,0000.79,0000.26
2024-02-08 23:27:00,SystemResetWarning,0818.5,4.99,000.00,021.3,020.6,000.0,029.6,023.0,12.0,0000.0,0000.37,0000.81,0000.27
2024-02-08 23:28:00,SystemResetWarning,0818.4,5.02,000.00,021.3,020.6,000.0,029.6,023.0,11.9,0000.0,0000.39,0000.86,0000.28
2024-02-08 23:29:00,SystemResetWarning,0818.4,5.01,000.00,021.3,020.6,000.0,029.6,023.0,11.3,0000.0,0000.39,0000.86,0000.28
2024-02-08 23:30:00,SystemResetWarning,0818.5,4.99,000.00,021.3,020.6,000.0,029.6,023.0,11.6,0000.0,0000.38,0000.90,0000.28
2024-02-08 23:31:00,SystemResetWarning,0818.6,4.99,000.00,021.3,020.6,000.0,029.6,023.0,11.6,0000.0,0000.38,0000.87,0000.28
2024-02-08 23:32:00,SystemResetWarning,0818.6,5.00,000.00,021.3,020.6,000.0,029.6,023.0,11.7,0000.0,0000.38,0000.66,0000.29
2024-02-08 23:33:00,SystemResetWarning,0818.6,5.00,000.00,021.3,020.5,000.0,029.6,023.0,11.4,0000.0,0000.38,0000.68,0000.29
2024-02-08 23:34:00,SystemResetWarning,0818.6,5.00,000.00,021.3,020.5,000.0,029.6,023.0,11.6,0000.0,0000.39,0000.70,0000.29
2024-02-08 23:35:00,SystemResetWarning,0818.6,5.00,000.00,021.3,020.5,000.0,029.6,023.0,11.8,0000.0,0000.39,0000.70,0000.29
2024-02-08 23:36:00,SystemResetWarning,0818.6,5.00,000.00,021.3,020.5,000.0,029.6,023.0,11.5,0000.0,0000.38,0000.65,0000.29
2024-02-08 23:37:00,SystemResetWarning,0818.6,5.01,000.00,021.3,020.5,000.0,029.6,023.0,11.2,0000.0,0000.37,0000.61,0000.29
2024-02-08 23:38:00,SystemResetWarning,0818.6,5.01,000.00,021.3,020.5,000.0,029.6,023.0,11.8,0000.0,0000.37,0000.61,0000.28
2024-02-08 23:39:00,SystemResetWarning,0818.6,5.00,000.00,021.3,020.5,000.0,029.6,023.0,11.6,0000.0,0000.37,0000.59,0000.28
2024-02-08 23:40:00,SystemResetWarning,0818.6,5.00,000.00,021.3,020.5,000.0,029.6,023.0,12.0,0000.0,0000.36,0000.58,0000.28
2024-02-08 23:41:00,SystemResetWarning,0818.6,5.00,000.00,021.3,020.5,000.0,029.6,023.0,11.8,0000.0,0000.34,0000.48,0000.28
2024-02-08 23:42:00,SystemResetWarning,0818.7,5.00,000.00,021.3,020.5,000.0,029.6,023.0,11.6,0000.0,0000.35,0000.48,0000.29
2024-02-08 23:43:00,SystemResetWarning,0818.7,5.00,000.00,021.3,020.5,000.0,029.6,023.0,11.9,0000.0,0000.35,0000.48,0000.29
2024-02-08 23:44:00,SystemResetWarning,0818.7,4.99,000.00,021.3,020.5,000.0,029.6,023.0,11.5,0000.0,0000.35,0000.48,0000.29
2024-02-08 23:45:00,SystemResetWarning,0818.7,5.00,000.00,021.3,020.5,000.0,029.6,023.0,11.5,0000.0,0000.35,0000.48,0000.29
2024-02-08 23:46:00,SystemResetWarning,0818.7,5.00,000.00,021.3,020.5,000.0,029.5,022.9,11.4,0000.0,0000.35,0000.52,0000.29
2024-02-08 23:47:00,SystemResetWarning,0818.6,5.00,000.00,021.3,020.5,000.0,029.5,022.9,11.2,0000.0,0000.35,0000.51,0000.30
2024-02-08 23:48:00,SystemResetWarning,0818.6,5.00,000.00,021.3,020.5,000.0,029.5,022.9,11.5,0000.0,0000.35,0000.51,0000.30
2024-02-08 23:49:00,SystemResetWarning,0818.7,5.00,000.00,021.2,020.5,000.0,029.5,022.9,11.1,0000.0,0000.38,0000.54,0000.31
2024-02-08 23:50:00,SystemResetWarning,0818.7,5.00,000.00,021.2,020.4,000.0,029.5,022.9,11.2,0000.0,0000.39,0000.56,0000.31
2024-02-08 23:51:00,SystemResetWarning,0818.7,5.00,000.00,021.2,020.4,000.0,029.5,022.9,11.0,0000.0,0000.39,0000.55,0000.32
2024-02-08 23:52:00,SystemResetWarning,0818.7,5.00,000.00,021.2,020.4,000.0,029.5,022.9,11.5,0000.0,0000.39,0000.55,0000.32
2024-02-08 23:53:00,SystemResetWarning,0818.7,5.00,000.00,021.2,020.4,000.0,029.5,022.9,11.0,0000.0,0000.39,0000.55,0000.32
2024-02-08 23:54:00,SystemResetWarning,0818.7,5.01,000.00,021.2,020.4,000.0,029.5,022.9,11.1,0000.0,0000.40,0000.55,0000.33
2024-02-08 23:55:00,SystemResetWarning,0818.7,5.00,000.00,021.2,020.4,000.0,029.5,022.9,11.3,0000.0,0000.41,0000.57,0000.33
2024-02-08 23:56:00,SystemResetWarning,0818.7,5.00,000.00,021.2,020.4,000.0,029.5,022.9,11.1,0000.0,0000.41,0000.56,0000.33
2024-02-08 23:57:00,SystemResetWarning,0818.8,5.00,000.00,021.2,020.4,000.0,029.5,022.9,11.3,0000.0,0000.40,0000.49,0000.33
2024-02-08 23:58:00,SystemResetWarning,0818.8,5.00,000.00,021.2,020.4,000.0,029.5,022.9,11.6,0000.0,0000.40,0000.49,0000.33
2024-02-08 23:59:00,SystemResetWarning,0818.8,5.00,000.00,021.2,020.5,000.0,029.5,022.9,11.3,0000.0,0000.39,0000.48,0000.33
